Regional Weather Roundup
Issued by NWS Cleveland, OH

Home | Current Version | Previous Version | Graphics & Text | Print | Product List | Glossary On
Versions: 1 2 3 4 5 6 7 8 9 10 11 12 13 14 15 16 17 18 19 20 21 22 23 24 25 26 27 28 29 30 31 32 33 34 35 36 37 38 39 40 41 42 43 44 45 46 47 48 49 50
998
ASUS41 KCLE 031602
RWRCLE
OHIO REGIONAL WEATHER ROUNDUP
NATIONAL WEATHER SERVICE CLEVELAND, OH
1100 AM EST SAT DEC 03 2016

NOTE: "FAIR" INDICATES FEW OR NO CLOUDS BELOW 12,000 FEET WITH NO
SIGNIFICANT WEATHER AND/OR OBSTRUCTIONS TO VISIBILITY.

OHZ001>008-015>018-024>027-034-035-043-044-031700-
   NORTHWEST OHIO

CITY           SKY/WX    TMP DP  RH WIND       PRES   REMARKS
DEFIANCE       CLOUDY    38  29  70 CALM      30.32F
FINDLAY        CLOUDY    37  28  70 W7        30.32F
TOLEDO EXPRESS CLOUDY    36  31  82 W7        30.32F
TOLEDO EXEC    CLOUDY    38  31  76 W7        30.33F
LIMA           CLOUDY    37  25  61 NW7       30.32F
$$

OHZ009>014-019>023-028>033-038-089-031700-
   NORTHEAST OHIO

CITY           SKY/WX    TMP DP  RH WIND       PRES   REMARKS
CLE-HOPKINS    CLOUDY    38  30  73 SW8       30.33F
CLE-LAKEFRONT  CLOUDY    40  33  76 W14       30.30F
CUY CO. ARPT   CLOUDY    39  34  81 NW7       30.31R
LORAIN-ELYRIA  CLOUDY    37  28  70 W7        30.32F
ASHTABULA      CLOUDY    39  33  79 W12       30.29R
AKRON-CANTON   FLURRIES  37  31  78 NW7       30.30F
WOOSTER        CLOUDY    36  29  75 NW6       30.31F
MANSFIELD      CLOUDY    35  28  75 W7        30.31S WCI  29
YOUNGSTOWN     CLOUDY    37  30  75 W10       30.28S
$$

OHZ042-051>053-060>062-070>072-077>081-031700-
  SOUTHWEST OHIO

CITY           SKY/WX    TMP DP  RH WIND       PRES   REMARKS
CINC-COVINGTON CLOUDY    39  32  76 CALM      30.34F
CINC-LUNKEN    CLOUDY    41  30  65 CALM      30.37F
HAMILTON       CLOUDY    40  26  57 N5        30.36F
DAYTON         CLOUDY    37  25  61 W7        30.34F
WRIGHT-PAT AFB CLOUDY    39  28  65 W5        30.34F
DAYTON GENERAL CLOUDY    38  24  57 W5        30.34F
WILMINGTON     CLOUDY    37  32  82 W7        30.34F
$$

OHZ036-037-039>041-045>050-054>059-063>069-073>076-082>088-031700-
  CENTRAL AND SOUTHEAST OHIO

CITY           SKY/WX    TMP DP  RH WIND       PRES   REMARKS
COLUMBUS       CLOUDY    37  30  75 NW3       30.35S
OSU AIRPORT    CLOUDY    37  29  72 NW7       30.34F
BOLTON FIELD   NOT AVBL
RICKENBACK AFB CLOUDY    37  31  80 W5        30.35F
NEWARK         CLOUDY    37  28  70 W3        30.35R
MARION         CLOUDY    36  28  73 W5        30.34S
LANCASTER      CLOUDY    38  30  73 CALM      30.35F
ZANESVILLE     CLOUDY    37  27  67 W3        30.35R
NEW PHILLY     CLOUDY    36  29  75 W6        30.34
$$




USA.gov is the U.S. government's official web portal to all federal, state and local government web resources and services.